[[{"header":{"parameterUnit":"m.s-1","parameterCategory":2,"la1":30.2991,"la2":30.254,"lo1":-89.0895,"lo2":-89.0444,"dy":0.0017,"dx":0.0017,"nx":28,"ny":28,"refTime":"2025-03-24T09:00:00:Z","depth":"0","parameterNumber":2,"parameterNumberName":"U-component_of_CURRENTS"},"data":[0,0,0,0,0,0,0,0,0,0,0,0,0,0,0,0,0,0,0,0,0,0,0,0,0,0,0,0,0,0,0,0,0,0,0,0,0,0,0,0,0,0,0,0,0,0,0,0,0,0,0,0,0,0,0,0,0,0,-0.2595,-0.2595,0,-0.2619,-0.2619,-0.2619,-0.2567,-0.2566,-0.2564,-0.2563,-0.253,-0.2531,-0.2531,0,0,0,0,0,0,0,0,0,0,0,0,0,-0.2512,-0.2513,-0.2595,-0.2595,-0.2596,-0.2619,-0.2619,-0.2619,-0.2568,-0.2566,-0.2564,-0.2562,-0.253,-0.2531,-0.2531,0,0,0,0,0,0,0,0,0,0,0,0,0,-0.2541,-0.2514,-0.2595,-0.2575,-0.2573,-0.2619,-0.2619,-0.2619,-0.2568,-0.2566,-0.2564,-0.2562,-0.253,-0.2531,-0.2531,-0.258,0,0,-0.2534,-0.2534,0,0,0,0,0,0,0,0,-0.2539,-0.2544,-0.2577,-0.2576,-0.2575,-0.259,-0.2578,-0.2604,-0.2569,-0.2568,-0.2563,-0.2561,-0.2548,-0.2547,-0.2554,-0.2578,-0.2577,-0.2534,-0.2534,-0.2534,-0.2535,0,0,0,0,0,0,0,-0.2537,-0.2542,-0.2602,-0.2578,-0.2577,-0.2567,-0.2569,-0.2583,-0.2567,-0.2567,-0.2564,-0.2572,-0.2546,-0.2554,-0.2553,-0.2576,-0.2534,-0.2534,-0.2535,-0.2535,-0.2649,-0.2651,0,0,0,0,0,0,-0.2542,-0.2541,-0.2601,-0.2603,-0.2554,-0.2571,-0.2572,-0.2585,-0.2568,-0.2564,-0.2573,-0.2569,-0.2553,-0.2552,-0.2551,-0.2599,-0.2534,-0.2535,-0.2536,-0.2646,-0.2649,-0.2652,0,0,0,0,0,0,-0.254,-0.2547,-0.26,-0.2574,-0.258,-0.2575,-0.259,-0.2587,-0.2585,-0.2574,-0.2568,-0.2573,-0.2552,-0.255,-0.2577,-0.2597,-0.2535,-0.2536,-0.2643,-0.2647,-0.2651,-0.27,0,0,0,0,0,0,-0.2538,-0.2547,-0.2553,-0.2574,-0.2582,-0.264,-0.2592,-0.2589,-0.2595,-0.2589,-0.2572,-0.2567,-0.255,-0.2577,-0.2578,-0.2597,-0.2537,-0.264,-0.2645,-0.2649,-0.2695,-0.2705,-0.2714,0,0,0,0,0,-0.2535,-0.2555,-0.2554,-0.2561,-0.2593,-0.2642,-0.2646,-0.2632,-0.2597,-0.2617,-0.2605,-0.2567,-0.2608,-0.258,-0.2581,-0.26,-0.2637,-0.2643,-0.2649,-0.2691,-0.2703,-0.2714,0,0,0,0,0,0,-0.2509,-0.2553,-0.2551,-0.2579,-0.2614,-0.2634,-0.2643,-0.2638,-0.2644,-0.2627,-0.2602,-0.26,-0.2634,-0.2623,-0.2592,-0.2653,-0.2616,-0.2623,-0.2648,-0.266,-0.2669,-0.2657,-0.2537,0,0,0,0,0,-0.2513,-0.254,-0.2583,-0.2601,-0.2622,-0.2633,-0.2646,-0.2646,-0.2657,-0.2656,-0.2649,-0.2646,-0.2665,-0.2663,-0.2682,-0.2713,-0.2669,-0.273,-0.2739,-0.2746,-0.2742,-0.2723,-0.2728,-0.2671,-0.2671,-0.2671,0,0,-0.2505,-0.2531,-0.2544,-0.2598,-0.2615,-0.2657,-0.2634,-0.2664,-0.2687,-0.2654,-0.2675,-0.2684,-0.2686,-0.2724,-0.2736,-0.2708,-0.2736,-0.2754,-0.276,-0.2751,-0.2729,-0.2734,-0.2738,-0.2675,-0.2674,-0.2674,0,0,-0.2516,-0.2531,-0.2567,-0.2605,-0.265,-0.2667,-0.2679,-0.2715,-0.2717,-0.2755,-0.2739,-0.2768,-0.2782,-0.2798,-0.2802,-0.288,-0.2796,-0.2878,-0.2899,-0.2882,-0.2885,-0.2887,-0.2809,-0.2805,-0.2871,-0.2871,-0.2871,0,-0.2488,-0.2545,-0.2584,-0.2632,-0.2651,-0.2674,-0.2712,-0.2738,-0.2774,-0.2777,-0.2767,-0.2806,-0.2821,-0.2855,-0.2888,-0.2898,-0.2843,-0.2849,-0.2889,-0.2891,-0.2892,-0.2812,-0.2806,-0.2874,-0.2873,-0.2873,-0.2873,0,-0.2531,-0.2579,-0.2601,-0.2665,-0.2705,-0.2735,-0.2787,-0.2815,-0.2814,-0.2827,-0.2864,-0.2893,-0.2903,-0.2929,-0.293,-0.2959,-0.2899,-0.2907,-0.2848,-0.29,-0.2813,-0.2806,-0.2878,-0.2877,-0.2876,-0.2875,0,0,-0.2397,-0.2595,-0.2583,-0.2635,-0.2714,-0.2743,-0.2801,-0.2846,-0.2841,-0.2894,-0.2888,-0.2969,-0.2961,-0.297,-0.2981,-0.2981,-0.2958,-0.2944,-0.2942,-0.2843,-0.2854,-0.2607,-0.2574,-0.2954,-0.2954,-0.2954,-0.2776,0,-0.2385,-0.252,-0.2594,-0.2664,-0.2733,-0.2778,-0.2815,-0.286,-0.2877,-0.2884,-0.2927,-0.2937,-0.2981,-0.2974,-0.2992,-0.2971,-0.2945,-0.3002,-0.2839,-0.2833,-0.2589,-0.2561,-0.2451,-0.2265,-0.2768,-0.2767,-0.2766,0,-0.2357,-0.2456,-0.2582,-0.2689,-0.2705,-0.2742,-0.277,-0.2808,-0.2847,-0.2854,-0.2886,-0.2898,-0.2936,-0.2953,-0.2931,-0.2952,-0.2907,-0.2885,-0.2878,-0.2623,-0.2572,-0.2304,-0.2232,-0.2315,-0.2754,-0.2755,-0.2756,0,-0.2275,-0.2403,-0.2512,-0.2553,-0.2699,-0.2717,-0.2745,-0.2793,-0.278,-0.283,-0.2796,-0.2858,-0.2829,-0.2846,-0.28,-0.2863,-0.271,-0.2794,-0.2522,-0.2502,-0.2363,-0.233,-0.2331,-0.2752,-0.2753,-0.2753,-0.2754,0,-0.2249,-0.2299,-0.2481,-0.2548,-0.2555,-0.267,-0.2649,-0.2692,-0.2706,-0.2627,-0.2762,-0.2677,-0.2795,-0.2719,-0.2739,-0.2547,-0.2652,-0.249,-0.2435,-0.2372,-0.2343,-0.2371,-0.2441,-0.2746,-0.2748,-0.2749,-0.275,0,-0.2187,-0.2331,-0.2417,-0.2548,-0.2558,-0.2558,-0.2559,-0.2505,-0.2578,-0.2476,-0.2479,-0.251,-0.2398,-0.2439,-0.2399,-0.2384,-0.2243,-0.2198,-0.2072,-0.2004,-0.1848,-0.1923,-0.1754,-0.1701,-0.1904,-0.1896,-0.189,0,-0.2192,-0.2274,-0.2375,-0.2344,-0.2398,-0.24,-0.2344,-0.2424,-0.2344,-0.2311,-0.2205,-0.2133,-0.1966,-0.1822,-0.1811,-0.1734,-0.1885,-0.16,-0.1727,-0.1774,-0.1823,-0.1891,-0.187,-0.1571,-0.1563,-0.1556,-0.1551,0,-0.2143,-0.2187,-0.2231,-0.2175,-0.2127,-0.207,-0.2011,-0.1948,-0.1961,-0.1883,-0.1684,-0.1575,-0.1437,-0.1276,-0.1209,-0.122,-0.1579,-0.1449,-0.1577,-0.1591,-0.1593,-0.1536,-0.1733,-0.1491,-0.1497,-0.1501,-0.1504,-0.1507,-0.2002,-0.1974,-0.1979,-0.1896,-0.1833,-0.1677,-0.1549,-0.1473,-0.132,-0.1136,-0.116,-0.0932,-0.0924,-0.0796,-0.0809,-0.0911,-0.1021,-0.1017,-0.1107,-0.1175,-0.1111,-0.1102,-0.0747,-0.0749,-0.075,-0.0752,-0.0753,0,-0.1724,-0.172,-0.1653,-0.1518,-0.1334,-0.1409,-0.1235,-0.107,-0.0808,-0.0705,-0.0518,-0.0357,-0.0314,-0.0457,-0.0618,-0.0657,-0.0748,-0.0741,-0.0941,-0.094,-0.1,-0.0976,-0.0559,-0.0559,-0.0559,-0.0559,-0.0559,-0.0559,-0.1557,-0.1405,-0.1382,-0.1026,-0.0945,-0.0648,-0.0522,-0.0379,-0.0265,-0.0014,0.0104,0.0155,-0.0115,-0.0542,-0.0772,-0.0766,-0.0881,-0.075,-0.085,-0.1068,-0.1108,-0.1147,-0.1147,-0.0772,-0.0773,-0.0768,-0.0769,-0.077]},{"header":{"parameterUnit":"m.s-1","parameterCategory":2,"la1":30.2991,"la2":30.254,"lo1":-89.0895,"lo2":-89.0444,"dy":0.0017,"dx":0.0017,"nx":28,"ny":28,"refTime":"2025-03-24T09:00:00:Z","depth":"0","parameterNumber":3,"parameterNumberName":"V-component_of_CURRENTS"},"data":[0,0,0,0,0,0,0,0,0,0,0,0,0,0,0,0,0,0,0,0,0,0,0,0,0,0,0,0,0,0,0,0,0,0,0,0,0,0,0,0,0,0,0,0,0,0,0,0,0,0,0,0,0,0,0,0,0,0,-0.0066,-0.0065,0,0.0011,0.0012,0.0013,0.0073,0.0074,0.0074,0.0075,0.0223,0.0227,0.023,0,0,0,0,0,0,0,0,0,0,0,0,0,-0.017,-0.0169,-0.0066,-0.0065,-0.0064,0.0011,0.0012,0.0013,0.0073,0.0074,0.0074,0.0075,0.0222,0.0226,0.023,0,0,0,0,0,0,0,0,0,0,0,0,0,-0.0112,-0.0168,-0.0066,-0.0026,-0.0021,0.0011,0.0012,0.0013,0.0073,0.0074,0.0074,0.0075,0.0221,0.0226,0.0231,0.0247,0,0,0.0247,0.0249,0,0,0,0,0,0,0,0,-0.0115,-0.0108,-0.0033,-0.0028,-0.0023,0.0033,0.003,0.0095,0.0073,0.0038,0.0075,0.0076,0.0165,0.0175,0.0188,0.0254,0.026,0.0247,0.025,0.0253,0.0254,0,0,0,0,0,0,0,-0.0119,-0.0111,-0.0035,-0.0032,-0.0026,-0.0015,-0.0005,0.0042,0.0098,0.0041,0.0045,0.0053,0.0168,0.0182,0.0192,0.0263,0.0247,0.0252,0.0255,0.0257,0.0382,0.0382,0,0,0,0,0,0,-0.013,-0.0115,-0.0037,-0.0033,-0.0069,-0.0013,-0.0003,0.0014,0.0096,0.0108,0.0052,0.0055,0.0173,0.0186,0.0197,0.0197,0.0253,0.0257,0.026,0.0382,0.0382,0.0382,0,0,0,0,0,0,-0.0132,-0.0124,-0.004,-0.0073,-0.0062,-0.0012,0.0006,0.0015,0.003,0.0103,0.0118,0.0057,0.0174,0.019,0.0238,0.0204,0.026,0.0265,0.0382,0.0382,0.0382,0.0212,0,0,0,0,0,0,-0.0136,-0.0125,-0.0117,-0.0073,-0.006,-0.0029,0.0006,0.0016,0.0033,0.0038,0.0113,0.0127,0.0176,0.0229,0.0243,0.0212,0.0269,0.0381,0.0382,0.0382,0.0217,0.0206,0.0197,0,0,0,0,0,-0.0139,-0.0136,-0.0117,-0.0108,-0.0051,-0.003,-0.0023,0.0015,0.0032,0.0033,0.0086,0.0125,0.0242,0.0233,0.0249,0.0219,0.0381,0.0382,0.0382,0.0222,0.0208,0.0197,0,0,0,0,0,0,-0.017,-0.0128,-0.0107,-0.0087,-0.0064,-0.002,-0.0018,0.0008,0.0048,0.0055,0.0125,0.0143,0.0174,0.0232,0.022,0.0264,0.032,0.0323,0.0192,0.0181,0.0171,0.0121,0.0273,0,0,0,0,0,-0.0176,-0.0167,-0.0123,-0.0111,-0.0103,-0.0063,-0.0049,-0.0025,0.0015,0.0033,0.0084,0.0144,0.0188,0.0211,0.0268,0.0285,0.0326,0.0282,0.0272,0.0262,0.0238,0.0246,0.0232,0.0384,0.0384,0.0384,0,0,-0.0183,-0.0161,-0.0153,-0.0119,-0.0099,-0.0118,-0.0053,-0.0041,-0.0061,0.0044,0.0041,0.0113,0.019,0.0208,0.0227,0.0248,0.0253,0.0263,0.0253,0.0234,0.0245,0.0229,0.0215,0.0384,0.0384,0.0384,0,0,-0.0232,-0.0178,-0.0207,-0.0196,-0.0176,-0.0151,-0.0154,-0.0114,-0.0097,-0.0079,-0.0014,0.003,0.0107,0.0137,0.0166,0.0138,0.0204,0.0172,0.0066,0.0074,0.0059,0.0047,0.0113,0.0108,0.0158,0.0158,0.0157,0,-0.0251,-0.0273,-0.0213,-0.0251,-0.0255,-0.0179,-0.0225,-0.0202,-0.0153,-0.0147,-0.0097,-0.0009,0.0061,0.0056,0.0052,0.0106,0.0145,0.0094,0.0053,0.0042,0.0032,0.0103,0.0099,0.015,0.015,0.0151,0.0152,0,-0.0335,-0.0355,-0.0371,-0.0397,-0.039,-0.0406,-0.0371,-0.0361,-0.0318,-0.029,-0.0262,-0.0168,-0.0117,-0.0086,-0.0026,-0.0058,0.0007,0.0038,0.0064,0.0005,0.0086,0.0085,0.0138,0.0141,0.0143,0.0145,0,0,-0.0371,-0.0426,-0.0431,-0.0471,-0.0465,-0.0466,-0.05,-0.0501,-0.0515,-0.0458,-0.048,-0.04,-0.0331,-0.0292,-0.0211,-0.0205,-0.0215,-0.0123,-0.0119,-0.0092,-0.0161,-0.0079,-0.007,-0.0204,-0.0205,-0.0207,-0.0068,0,-0.0462,-0.0573,-0.0565,-0.0653,-0.0702,-0.0651,-0.068,-0.0665,-0.0623,-0.0617,-0.0541,-0.0504,-0.0416,-0.0377,-0.0369,-0.0236,-0.0229,-0.0253,-0.0078,-0.0072,-0.0022,-0.0074,-0.0025,0.0104,-0.0068,-0.0068,-0.0068,0,-0.0554,-0.0614,-0.0734,-0.0783,-0.0794,-0.0825,-0.0834,-0.0846,-0.0819,-0.0782,-0.0754,-0.0671,-0.0629,-0.0547,-0.0419,-0.0436,-0.0326,-0.0236,-0.0228,-0.0103,0.0006,0.0134,0.011,0.0278,-0.0068,-0.0068,-0.0068,0,-0.063,-0.072,-0.082,-0.0841,-0.089,-0.0917,-0.0915,-0.0898,-0.0866,-0.088,-0.0831,-0.0807,-0.0711,-0.0644,-0.0422,-0.043,-0.0267,-0.0248,-0.008,-0.0069,0.0032,0.0053,0.0155,-0.0206,-0.0206,-0.0207,-0.0207,0,-0.0744,-0.0813,-0.0858,-0.092,-0.0967,-0.098,-0.0997,-0.0999,-0.0962,-0.0895,-0.09,-0.0818,-0.0729,-0.0598,-0.0473,-0.025,-0.0298,-0.0113,-0.005,-0.0017,-0.0003,0.0199,0.0256,-0.0202,-0.0203,-0.0204,-0.0205,0,-0.084,-0.0886,-0.097,-0.1022,-0.1017,-0.1042,-0.0984,-0.0966,-0.0958,-0.0872,-0.0862,-0.0786,-0.0638,-0.0524,-0.0356,-0.0242,0.0014,-0.0008,0.0056,0.012,0.0392,0.0438,0.0583,0.0678,0.0164,0.0166,0.0168,0,-0.0911,-0.0986,-0.1011,-0.0998,-0.1019,-0.1021,-0.098,-0.096,-0.0901,-0.0801,-0.0737,-0.0625,-0.0501,-0.0261,-0.0118,0.0056,0.0167,0.0244,0.0207,0.0399,0.0496,0.0513,0.0583,0.0304,0.0307,0.031,0.0312,0,-0.102,-0.1018,-0.1056,-0.1017,-0.0982,-0.0936,-0.0878,-0.0825,-0.0753,-0.0664,-0.0513,-0.0438,-0.0262,-0.009,0.0091,0.0219,0.0357,0.0302,0.0464,0.0569,0.0629,0.0755,0.0268,0.0334,0.0332,0.033,0.0329,0.0328,-0.1029,-0.1036,-0.1028,-0.0979,-0.0928,-0.0825,-0.0739,-0.0654,-0.0526,-0.0343,-0.0314,-0.0169,-0.0035,0.0185,0.034,0.064,0.0562,0.0738,0.0773,0.077,0.0857,0.044,0.059,0.0589,0.0589,0.0588,0.0588,0,-0.0965,-0.0974,-0.096,-0.0869,-0.0766,-0.0757,-0.0623,-0.05,-0.0302,-0.0192,-0.0038,0.012,0.0361,0.053,0.0867,0.1082,0.1113,0.1197,0.1226,0.127,0.0885,0.0887,0.1151,0.1151,0.1151,0.1151,0.1151,0.115,-0.0923,-0.088,-0.0865,-0.0695,-0.0627,-0.043,-0.0324,-0.0185,-0.0084,0.0117,0.0215,0.027,0.0486,0.1039,0.1463,0.1523,0.1691,0.1664,0.1751,0.1489,0.1448,0.141,0.1427,0.1799,0.18,0.213,0.2133,0.2136]}],[{"header":{"parameterUnit":"m.s-1","parameterCategory":2,"la1":30.2991,"la2":30.254,"lo1":-89.0895,"lo2":-89.0444,"dy":0.0017,"dx":0.0017,"nx":28,"ny":28,"refTime":"2025-03-24T09:00:00:Z","depth":"2","parameterNumber":2,"parameterNumberName":"U-component_of_CURRENTS"},"data":[0,0,0,0,0,0,0,0,0,0,0,0,0,0,0,0,0,0,0,0,0,0,0,0,0,0,0,0,0,0,0,0,0,0,0,0,0,0,0,0,0,0,0,0,0,0,0,0,0,0,0,0,0,0,0,0,0,0,-0.153,-0.1529,0,-0.1532,-0.1533,-0.1533,-0.1548,-0.1548,-0.1548,-0.1548,-0.1571,-0.1571,-0.1572,0,0,0,0,0,0,0,0,0,0,0,0,0,-0.1538,-0.1538,-0.153,-0.1529,-0.1529,-0.1532,-0.1533,-0.1533,-0.1548,-0.1548,-0.1548,-0.1549,-0.1571,-0.1571,-0.1572,0,0,0,0,0,0,0,0,0,0,0,0,0,-0.1537,-0.1538,-0.153,-0.1537,-0.1537,-0.1532,-0.1533,-0.1533,-0.1547,-0.1548,-0.1548,-0.1549,-0.1571,-0.1571,-0.1572,-0.1566,0,0,-0.1573,-0.1573,0,0,0,0,0,0,0,0,-0.1537,-0.1537,-0.1536,-0.1536,-0.1537,-0.1539,-0.1544,-0.1545,-0.1547,-0.1544,-0.1548,-0.1549,-0.1561,-0.1563,-0.1563,-0.1567,-0.1568,-0.1573,-0.1573,-0.1574,-0.1574,0,0,0,0,0,0,0,-0.1537,-0.1537,-0.1531,-0.1536,-0.1536,-0.154,-0.154,-0.1544,-0.1551,-0.1545,-0.1546,-0.1545,-0.1562,-0.1562,-0.1564,-0.1568,-0.1573,-0.1574,-0.1574,-0.1574,-0.1611,-0.1611,0,0,0,0,0,0,-0.1535,-0.1537,-0.1531,-0.1531,-0.1537,-0.1539,-0.154,-0.1539,-0.1551,-0.1553,-0.1544,-0.1545,-0.1561,-0.1563,-0.1565,-0.1595,-0.1574,-0.1574,-0.1574,-0.161,-0.1611,-0.1612,0,0,0,0,0,0,-0.1535,-0.1534,-0.1531,-0.1534,-0.1534,-0.1539,-0.1537,-0.1539,-0.1549,-0.155,-0.1553,-0.1554,-0.1562,-0.1564,-0.1578,-0.1595,-0.1574,-0.1575,-0.1609,-0.161,-0.1611,-0.1634,0,0,0,0,0,0,-0.1535,-0.1534,-0.1534,-0.1534,-0.1533,-0.1535,-0.1537,-0.1538,-0.1547,-0.1549,-0.156,-0.1561,-0.1562,-0.1577,-0.1578,-0.1595,-0.1575,-0.1608,-0.161,-0.1611,-0.1632,-0.1635,-0.1638,0,0,0,0,0,-0.1536,-0.1527,-0.1534,-0.1533,-0.1532,-0.1535,-0.1536,-0.1541,-0.1547,-0.1552,-0.1562,-0.1562,-0.1586,-0.1578,-0.1579,-0.1597,-0.1608,-0.1609,-0.1611,-0.1631,-0.1635,-0.1638,0,0,0,0,0,0,-0.1524,-0.1528,-0.1535,-0.1528,-0.1536,-0.1537,-0.1538,-0.1546,-0.1557,-0.1559,-0.1566,-0.1569,-0.1587,-0.1588,-0.1579,-0.1612,-0.1599,-0.16,-0.1613,-0.1617,-0.162,-0.1614,-0.1576,0,0,0,0,0,-0.1523,-0.1518,-0.153,-0.1521,-0.153,-0.1538,-0.154,-0.1545,-0.1553,-0.1558,-0.1568,-0.1579,-0.1592,-0.1602,-0.1608,-0.1624,-0.1627,-0.1637,-0.164,-0.1643,-0.164,-0.1668,-0.1673,-0.1617,-0.1616,-0.1616,0,0,-0.1514,-0.1514,-0.1512,-0.1519,-0.1526,-0.154,-0.1541,-0.1545,-0.156,-0.1558,-0.1581,-0.1587,-0.1598,-0.1617,-0.1626,-0.1622,-0.1661,-0.1645,-0.1647,-0.1642,-0.167,-0.1675,-0.168,-0.1618,-0.1617,-0.1617,0,0,-0.1498,-0.15,-0.1502,-0.1513,-0.1526,-0.1534,-0.1541,-0.1553,-0.1566,-0.1583,-0.159,-0.1607,-0.1624,-0.1638,-0.1648,-0.1671,-0.1673,-0.1677,-0.1691,-0.1718,-0.1723,-0.1727,-0.1738,-0.1743,-0.1682,-0.1682,-0.1682,0,-0.1491,-0.1494,-0.1502,-0.1514,-0.1524,-0.1538,-0.1552,-0.1566,-0.1581,-0.1594,-0.1594,-0.1629,-0.1636,-0.1668,-0.1676,-0.1679,-0.1687,-0.1676,-0.1722,-0.1726,-0.173,-0.174,-0.1746,-0.1683,-0.1683,-0.1683,-0.1682,0,-0.1487,-0.1494,-0.1495,-0.152,-0.1534,-0.1541,-0.1569,-0.1587,-0.1603,-0.1616,-0.1647,-0.1658,-0.1679,-0.1689,-0.1688,-0.1724,-0.1718,-0.172,-0.1712,-0.1737,-0.1746,-0.1751,-0.1685,-0.1684,-0.1684,-0.1684,0,0,-0.1462,-0.1489,-0.1491,-0.1512,-0.1538,-0.1552,-0.1581,-0.1613,-0.1644,-0.1655,-0.1692,-0.1708,-0.171,-0.1721,-0.1728,-0.1751,-0.1785,-0.1747,-0.1747,-0.1755,-0.1836,-0.17,-0.1692,-0.1798,-0.1799,-0.18,-0.183,0,-0.1461,-0.148,-0.1496,-0.1526,-0.1546,-0.1575,-0.1607,-0.1638,-0.1665,-0.1704,-0.1718,-0.1761,-0.1726,-0.1756,-0.1759,-0.1802,-0.1799,-0.1775,-0.1811,-0.1812,-0.1687,-0.1693,-0.1567,-0.1571,-0.1835,-0.1836,-0.1836,0,-0.1457,-0.1473,-0.1495,-0.1546,-0.156,-0.1582,-0.1642,-0.1675,-0.1726,-0.1753,-0.1774,-0.1798,-0.1841,-0.1809,-0.1848,-0.1837,-0.182,-0.1833,-0.1835,-0.1701,-0.1684,-0.1589,-0.1571,-0.1845,-0.1844,-0.1843,-0.1843,0,-0.1438,-0.1477,-0.1493,-0.1507,-0.1564,-0.1588,-0.1626,-0.1681,-0.1757,-0.1797,-0.1863,-0.187,-0.1918,-0.1912,-0.1878,-0.1899,-0.1893,-0.1937,-0.1783,-0.1775,-0.1667,-0.1645,-0.1927,-0.1927,-0.1926,-0.1926,-0.1926,0,-0.1425,-0.1444,-0.1487,-0.1498,-0.1546,-0.1588,-0.168,-0.1693,-0.1801,-0.1865,-0.1891,-0.1923,-0.1949,-0.1935,-0.1899,-0.1822,-0.19,-0.1776,-0.1769,-0.1668,-0.1647,-0.1884,-0.1879,-0.1928,-0.1927,-0.1927,-0.1927,0,-0.1396,-0.1419,-0.1451,-0.1509,-0.1534,-0.1569,-0.1739,-0.1815,-0.1895,-0.198,-0.2015,-0.2028,-0.1975,-0.1939,-0.1915,-0.1854,-0.1802,-0.1728,-0.1583,-0.1556,-0.168,-0.1676,-0.166,-0.1656,-0.1652,-0.1648,-0.1646,0,-0.1382,-0.1386,-0.1451,-0.1471,-0.1496,-0.1601,-0.1683,-0.1828,-0.1914,-0.2,-0.2017,-0.2009,-0.1914,-0.1813,-0.1686,-0.1586,-0.1641,-0.1431,-0.1443,-0.1655,-0.1652,-0.1654,-0.1655,-0.1328,-0.1323,-0.1319,-0.1316,0,-0.1342,-0.1358,-0.1373,-0.1424,-0.1495,-0.1622,-0.1732,-0.1834,-0.1961,-0.2018,-0.1965,-0.1904,-0.1758,-0.1554,-0.1403,-0.1328,-0.1453,-0.1342,-0.1614,-0.1388,-0.1337,-0.1335,-0.1348,-0.1278,-0.1282,-0.1285,-0.1287,-0.1288,-0.1295,-0.1294,-0.1305,-0.1344,-0.1445,-0.1543,-0.1612,-0.1727,-0.1814,-0.1807,-0.1811,-0.1649,-0.1564,-0.1256,-0.1129,-0.1038,-0.1164,-0.1152,-0.1169,-0.1189,-0.1117,-0.1058,-0.0935,-0.0937,-0.0939,-0.094,-0.0941,0,-0.1216,-0.1207,-0.123,-0.1267,-0.1329,-0.1439,-0.1572,-0.16,-0.1601,-0.1601,-0.1534,-0.1261,-0.1107,-0.1013,-0.0818,-0.0776,-0.0805,-0.0747,-0.0811,-0.0847,-0.0879,-0.0796,-0.0527,-0.0526,-0.0525,-0.0524,0,0,-0.1162,-0.1123,-0.1123,-0.1123,-0.118,-0.1268,-0.1322,-0.1314,-0.132,-0.1178,-0.1089,-0.1132,-0.1054,-0.0837,-0.0749,-0.0624,-0.0749,-0.0583,-0.0915,-0.1033,-0.1065,-0.1102,-0.101,0,0,0,0,0]},{"header":{"parameterUnit":"m.s-1","parameterCategory":2,"la1":30.2991,"la2":30.254,"lo1":-89.0895,"lo2":-89.0444,"dy":0.0017,"dx":0.0017,"nx":28,"ny":28,"refTime":"2025-03-24T09:00:00:Z","depth":"2","parameterNumber":3,"parameterNumberName":"V-component_of_CURRENTS"},"data":[0,0,0,0,0,0,0,0,0,0,0,0,0,0,0,0,0,0,0,0,0,0,0,0,0,0,0,0,0,0,0,0,0,0,0,0,0,0,0,0,0,0,0,0,0,0,0,0,0,0,0,0,0,0,0,0,0,0,-0.0186,-0.0185,0,-0.0113,-0.0112,-0.0111,-0.0054,-0.0054,-0.0054,-0.0054,0.004,0.0042,0.0045,0,0,0,0,0,0,0,0,0,0,0,0,0,-0.0263,-0.0261,-0.0186,-0.0185,-0.0185,-0.0113,-0.0112,-0.011,-0.0054,-0.0054,-0.0054,-0.0053,0.0039,0.0042,0.0045,0,0,0,0,0,0,0,0,0,0,0,0,0,-0.0211,-0.0261,-0.0186,-0.015,-0.0146,-0.0113,-0.0112,-0.011,-0.0054,-0.0054,-0.0054,-0.0053,0.0038,0.0042,0.0045,0.0058,0,0,0.0055,0.0057,0,0,0,0,0,0,0,0,-0.0214,-0.0208,-0.0156,-0.0153,-0.0148,-0.0095,-0.0105,-0.0054,-0.0055,-0.0086,-0.0054,-0.0053,-0.0005,0.0002,0.0018,0.0062,0.0066,0.0056,0.0058,0.0059,0.006,0,0,0,0,0,0,0,-0.0217,-0.021,-0.0154,-0.0155,-0.0151,-0.0133,-0.0125,-0.0095,-0.0046,-0.0083,-0.008,-0.0077,-0.0003,0.0015,0.0021,0.0068,0.0056,0.0059,0.0061,0.0062,0.0153,0.0153,0,0,0,0,0,0,-0.0233,-0.0214,-0.0156,-0.0152,-0.0184,-0.0133,-0.0123,-0.011,-0.0047,-0.0038,-0.0077,-0.0074,0.0009,0.0017,0.0025,0.0053,0.0059,0.0062,0.0064,0.0152,0.0153,0.0153,0,0,0,0,0,0,-0.0235,-0.0229,-0.0159,-0.0184,-0.0175,-0.0132,-0.0117,-0.0109,-0.0086,-0.0043,-0.0033,-0.0063,0.001,0.002,0.0051,0.0057,0.0064,0.0067,0.0152,0.0152,0.0153,0.0104,0,0,0,0,0,0,-0.0238,-0.0229,-0.0226,-0.0185,-0.0174,-0.0141,-0.0118,-0.0108,-0.0087,-0.0082,-0.0028,-0.0019,0.0011,0.0045,0.0054,0.0062,0.007,0.0151,0.0152,0.0153,0.0106,0.0103,0.0101,0,0,0,0,0,-0.024,-0.0234,-0.0226,-0.022,-0.017,-0.0141,-0.0133,-0.01,-0.0087,-0.0077,-0.0044,-0.002,0.0057,0.0048,0.0058,0.0067,0.0151,0.0152,0.0153,0.0106,0.0104,0.0101,0,0,0,0,0,0,-0.0263,-0.0227,-0.0217,-0.02,-0.0176,-0.0133,-0.0122,-0.0102,-0.0067,-0.0063,-0.0019,-0.0008,0.0023,0.0051,0.0041,0.0097,0.011,0.0113,0.0071,0.0069,0.0067,0.0051,0.0072,0,0,0,0,0,-0.027,-0.0257,-0.0223,-0.0211,-0.0199,-0.0162,-0.0147,-0.0126,-0.0092,-0.0076,-0.004,-0.0001,0.0034,0.0055,0.0089,0.0116,0.0159,0.0131,0.0128,0.0126,0.0122,0.0177,0.0179,0.0156,0.0156,0.0156,0,0,-0.0279,-0.0256,-0.025,-0.0216,-0.0192,-0.0178,-0.015,-0.0129,-0.0117,-0.0072,-0.0043,-0.0008,0.0039,0.007,0.0087,0.0094,0.0162,0.0127,0.0125,0.0121,0.0178,0.018,0.0182,0.0157,0.0156,0.0156,0,0,-0.0288,-0.0266,-0.0259,-0.0241,-0.0213,-0.0191,-0.0187,-0.0147,-0.0126,-0.01,-0.0063,-0.0028,0.0025,0.006,0.0085,0.0092,0.0146,0.0107,0.0086,0.0139,0.0141,0.0144,0.0224,0.0234,0.0108,0.0108,0.0108,0,-0.03,-0.0285,-0.0255,-0.0243,-0.0235,-0.0199,-0.0195,-0.0168,-0.0125,-0.0112,-0.0097,-0.0017,0.0021,0.0063,0.0065,0.0087,0.0134,0.0088,0.0135,0.0138,0.0142,0.0223,0.0235,0.0106,0.0106,0.0106,0.0106,0,-0.0303,-0.0295,-0.0288,-0.0265,-0.0251,-0.0241,-0.0209,-0.0193,-0.0169,-0.0141,-0.0098,-0.0045,0.0002,0.0023,0.0045,0.0087,0.012,0.0123,0.0137,0.0141,0.0227,0.024,0.0102,0.0103,0.0104,0.0105,0,0,-0.0317,-0.0296,-0.0295,-0.03,-0.0264,-0.0258,-0.0239,-0.0214,-0.0205,-0.0157,-0.0135,-0.0073,-0.0044,-0.0014,0.0026,0.0071,0.014,0.01,0.0104,0.0172,0.0282,0.0247,0.0258,0.0148,0.0149,0.0151,0.0342,0,-0.033,-0.0331,-0.031,-0.0318,-0.032,-0.0289,-0.0278,-0.0253,-0.0219,-0.0189,-0.0128,-0.0094,-0.0056,-0.0039,0.0015,0.0104,0.0168,0.009,0.0275,0.0281,0.0242,0.0269,0.0242,0.0403,0.0354,0.0356,0.0358,0,-0.0337,-0.0341,-0.0353,-0.0359,-0.0356,-0.0355,-0.034,-0.0326,-0.0272,-0.0246,-0.0194,-0.0145,-0.0067,-0.0046,0.0125,0.0073,0.0172,0.0246,0.0255,0.0243,0.0268,0.0389,0.0429,0.038,0.0378,0.0376,0.0375,0,-0.0374,-0.0374,-0.0392,-0.039,-0.0383,-0.0388,-0.0384,-0.0345,-0.0345,-0.0285,-0.0271,-0.0166,-0.0111,0.0013,0.017,0.0149,0.0366,0.0359,0.0434,0.0435,0.0458,0.0456,0.0481,0.0481,0.0481,0.048,0.048,0,-0.0398,-0.0414,-0.0416,-0.0428,-0.0462,-0.0434,-0.0461,-0.0434,-0.0404,-0.0393,-0.0308,-0.0264,-0.0098,0.0042,0.0178,0.0353,0.0384,0.0438,0.0474,0.0442,0.0437,0.0442,0.0434,0.0487,0.0486,0.0484,0.0483,0,-0.0439,-0.0431,-0.0464,-0.0473,-0.0482,-0.051,-0.0536,-0.0551,-0.0503,-0.0481,-0.0468,-0.0325,-0.0129,0.0058,0.0289,0.036,0.0528,0.0586,0.0546,0.057,0.0566,0.0554,0.0681,0.0681,0.0681,0.0681,0.0681,0,-0.0463,-0.0479,-0.0515,-0.0546,-0.0555,-0.0598,-0.0627,-0.0609,-0.0613,-0.051,-0.0492,-0.0309,-0.0146,0.0179,0.0351,0.0594,0.0602,0.0656,0.0585,0.0561,0.0584,0.0572,0.056,0.0632,0.0632,0.0631,0.0631,0,-0.0514,-0.0521,-0.0549,-0.0614,-0.0656,-0.0712,-0.0736,-0.0754,-0.0703,-0.0647,-0.0508,-0.0365,-0.0051,0.02,0.0469,0.0587,0.0602,0.0653,0.0675,0.0547,0.0519,0.0539,0.053,0.0629,0.0629,0.0629,0.063,0.063,-0.0553,-0.059,-0.0623,-0.0681,-0.0739,-0.0789,-0.0812,-0.0801,-0.0774,-0.0628,-0.0489,-0.0235,-0.0048,0.035,0.051,0.0629,0.0636,0.0646,0.0647,0.0647,0.0569,0.0537,0.0641,0.0641,0.0641,0.0641,0.0641,0,-0.0605,-0.0633,-0.0689,-0.0753,-0.0815,-0.0834,-0.0856,-0.0838,-0.0767,-0.0581,-0.0385,-0.0145,0.014,0.0347,0.0534,0.0623,0.0618,0.0626,0.0611,0.0613,0.0614,0.0532,0.0597,0.0597,0.0597,0.0597,0,0,-0.0635,-0.0686,-0.0706,-0.0794,-0.0843,-0.0901,-0.0902,-0.0827,-0.0693,-0.0498,-0.0303,-0.0029,0.0184,0.029,0.0426,0.0531,0.054,0.0527,0.0554,0.0523,0.0523,0.0619,0.0493,0,0,0,0,0]}],[{"header":{"parameterUnit":"m.s-1","parameterCategory":2,"la1":30.2991,"la2":30.254,"lo1":-89.0895,"lo2":-89.0444,"dy":0.0017,"dx":0.0017,"nx":28,"ny":28,"refTime":"2025-03-24T09:00:00:Z","depth":"4","parameterNumber":2,"parameterNumberName":"U-component_of_CURRENTS"},"data":[0,0,0,0,0,0,0,0,0,0,0,0,0,0,0,0,0,0,0,0,0,0,0,0,0,0,0,0,0,0,0,0,0,0,0,0,0,0,0,0,0,0,0,0,0,0,0,0,0,0,0,0,0,0,0,0,0,0,-0.1109,-0.111,0,-0.1159,-0.1159,-0.1159,-0.1192,-0.1192,-0.1192,-0.1193,-0.1248,-0.1249,-0.125,0,0,0,0,0,0,0,0,0,0,0,0,0,-0.1046,-0.1046,-0.1109,-0.111,-0.1111,-0.1159,-0.1159,-0.116,-0.1192,-0.1192,-0.1192,-0.1193,-0.1248,-0.1249,-0.125,0,0,0,0,0,0,0,0,0,0,0,0,0,-0.108,-0.1047,-0.1109,-0.1134,-0.1137,-0.1158,-0.1159,-0.116,-0.1192,-0.1192,-0.1193,-0.1193,-0.1247,-0.1249,-0.1251,-0.1251,0,0,-0.1256,-0.1257,0,0,0,0,0,0,0,0,-0.1078,-0.1082,-0.1129,-0.1132,-0.1135,-0.1171,-0.1157,-0.1191,-0.1191,-0.1169,-0.1193,-0.1193,-0.1223,-0.1227,-0.1233,-0.1253,-0.1256,-0.1256,-0.1257,-0.1258,-0.1258,0,0,0,0,0,0,0,-0.1076,-0.1081,-0.1127,-0.113,-0.1134,-0.1143,-0.1148,-0.1163,-0.1192,-0.1171,-0.1174,-0.1182,-0.1225,-0.1231,-0.1234,-0.1256,-0.1256,-0.1257,-0.1258,-0.1259,-0.1343,-0.1344,0,0,0,0,0,0,-0.1072,-0.1078,-0.1126,-0.1129,-0.1109,-0.1144,-0.115,-0.1158,-0.1191,-0.1197,-0.1181,-0.1183,-0.1228,-0.1232,-0.1237,-0.1295,-0.1258,-0.1259,-0.126,-0.1342,-0.1344,-0.1345,0,0,0,0,0,0,-0.1071,-0.1076,-0.1124,-0.1106,-0.1113,-0.1145,-0.1153,-0.1158,-0.1185,-0.1199,-0.1205,-0.1205,-0.1229,-0.1234,-0.1274,-0.1295,-0.126,-0.1262,-0.1341,-0.1343,-0.1344,-0.1376,0,0,0,0,0,0,-0.1069,-0.1075,-0.1088,-0.1106,-0.1114,-0.1152,-0.1153,-0.1159,-0.1188,-0.1192,-0.1221,-0.1226,-0.1229,-0.1272,-0.1276,-0.1297,-0.1263,-0.1339,-0.1342,-0.1344,-0.1374,-0.1379,-0.1383,0,0,0,0,0,-0.1066,-0.108,-0.1088,-0.1094,-0.1127,-0.1153,-0.1158,-0.1181,-0.1189,-0.1206,-0.123,-0.1226,-0.1289,-0.1274,-0.1279,-0.1301,-0.1338,-0.1341,-0.1343,-0.1372,-0.1378,-0.1383,0,0,0,0,0,0,-0.106,-0.1085,-0.1094,-0.1115,-0.1139,-0.1159,-0.1179,-0.1192,-0.1223,-0.1231,-0.1242,-0.1249,-0.129,-0.1294,-0.1277,-0.1333,-0.1312,-0.1316,-0.1332,-0.1338,-0.1343,-0.1331,-0.1264,0,0,0,0,0,-0.1063,-0.108,-0.1104,-0.1123,-0.1137,-0.1161,-0.1177,-0.1193,-0.1218,-0.1233,-0.1256,-0.1279,-0.1301,-0.1319,-0.1337,-0.1369,-0.1354,-0.1386,-0.1391,-0.1395,-0.139,-0.139,-0.1394,-0.1354,-0.1354,-0.1354,0,0,-0.1066,-0.1082,-0.1093,-0.1124,-0.1144,-0.1169,-0.1173,-0.1203,-0.1229,-0.1234,-0.1283,-0.1298,-0.1314,-0.135,-0.1369,-0.1359,-0.14,-0.1399,-0.1402,-0.1394,-0.1394,-0.1397,-0.1401,-0.1356,-0.1355,-0.1355,0,0,-0.1076,-0.1096,-0.1114,-0.1136,-0.1171,-0.1187,-0.12,-0.1234,-0.1257,-0.13,-0.1309,-0.1339,-0.1379,-0.1392,-0.1402,-0.1445,-0.1424,-0.1455,-0.1473,-0.1474,-0.1477,-0.1479,-0.1462,-0.1463,-0.1459,-0.1459,-0.1459,0,-0.1082,-0.1104,-0.1124,-0.1149,-0.117,-0.1197,-0.1223,-0.125,-0.1294,-0.1312,-0.1323,-0.1379,-0.1396,-0.1428,-0.1446,-0.1455,-0.1444,-0.1448,-0.1479,-0.1481,-0.1482,-0.1465,-0.1465,-0.1461,-0.1461,-0.1461,-0.1461,0,-0.11,-0.1127,-0.1141,-0.118,-0.1206,-0.1234,-0.127,-0.1303,-0.1334,-0.1355,-0.1402,-0.1425,-0.1452,-0.1469,-0.1473,-0.1499,-0.1483,-0.1482,-0.1459,-0.1488,-0.1468,-0.1468,-0.1464,-0.1463,-0.1463,-0.1462,0,0,-0.109,-0.1144,-0.1151,-0.1173,-0.1225,-0.1245,-0.1294,-0.1336,-0.1362,-0.1409,-0.1439,-0.1484,-0.149,-0.1501,-0.151,-0.1519,-0.1527,-0.1509,-0.1508,-0.1484,-0.1515,-0.1421,-0.1411,-0.153,-0.1531,-0.1531,-0.1495,0,-0.1101,-0.1143,-0.1172,-0.1218,-0.1243,-0.1283,-0.1321,-0.1363,-0.14,-0.1437,-0.1464,-0.1494,-0.1504,-0.1516,-0.1528,-0.1531,-0.1528,-0.1536,-0.1498,-0.1496,-0.1402,-0.1408,-0.1532,-0.1494,-0.1494,-0.1494,-0.1494,0,-0.1107,-0.1135,-0.1179,-0.1232,-0.1247,-0.1279,-0.1336,-0.1372,-0.1424,-0.1451,-0.1484,-0.1502,-0.1531,-0.1528,-0.1539,-0.1543,-0.1528,-0.1524,-0.1523,-0.142,-0.1401,-0.1461,-0.1493,-0.1493,-0.1493,-0.1493,-0.1493,0,-0.1077,-0.1139,-0.1172,-0.1192,-0.1256,-0.1284,-0.1318,-0.1374,-0.14,-0.1452,-0.1469,-0.1508,-0.1521,-0.1524,-0.1528,-0.1532,-0.1525,-0.1525,-0.1421,-0.1414,-0.1495,-0.1493,-0.1513,-0.1513,-0.1513,-0.1513,-0.1513,0,-0.1065,-0.1096,-0.1161,-0.1177,-0.1214,-0.1265,-0.1304,-0.1344,-0.1391,-0.1408,-0.1464,-0.1473,-0.1521,-0.1528,-0.1525,-0.1468,-0.1519,-0.1413,-0.1396,-0.151,-0.1511,-0.1494,-0.1493,-0.1511,-0.1512,-0.1512,-0.1512,0,-0.1028,-0.1073,-0.1112,-0.1179,-0.12,-0.1223,-0.1285,-0.1301,-0.1357,-0.1378,-0.1391,-0.1447,-0.1452,-0.1483,-0.1486,-0.1443,-0.1413,-0.1377,-0.1489,-0.1482,-0.1299,-0.13,-0.1244,-0.124,-0.1237,-0.1234,-0.1232,0,-0.1011,-0.1026,-0.1098,-0.1111,-0.1142,-0.1185,-0.1204,-0.1272,-0.1285,-0.1346,-0.1339,-0.1372,-0.1398,-0.1322,-0.1372,-0.1345,-0.1332,-0.1298,-0.1301,-0.1281,-0.1271,-0.1277,-0.1282,-0.1227,-0.1226,-0.1225,-0.1225,0,-0.0967,-0.1,-0.1023,-0.1052,-0.1076,-0.1104,-0.1137,-0.1136,-0.12,-0.1268,-0.1243,-0.1238,-0.1239,-0.1248,-0.1236,-0.1223,-0.1315,-0.1265,-0.1272,-0.1274,-0.126,-0.1255,-0.1263,-0.1214,-0.1215,-0.1216,-0.1217,0,-0.0926,-0.0927,-0.0953,-0.0969,-0.0999,-0.0996,-0.1034,-0.1036,-0.1057,-0.1127,-0.1118,-0.116,-0.1219,-0.1182,-0.1177,-0.1154,-0.1133,-0.1088,-0.1103,-0.1115,-0.1093,-0.1058,-0.0923,0,0,0,0,0,-0.0877,-0.0857,-0.0864,-0.0867,-0.0895,-0.0912,-0.0969,-0.1008,-0.1077,-0.1022,-0.1064,-0.1059,-0.1041,-0.1072,-0.1021,-0.1124,-0.1144,-0.1059,-0.1102,-0.1154,-0.1166,-0.1154,0,0,0,0,0,0,-0.0835,-0.0836,-0.0829,-0.0773,-0.0757,-0.0774,-0.0808,-0.0861,-0.0842,-0.092,-0.0921,-0.0976,-0.0986,-0.1046,-0.0991,-0.0999,-0.0999,-0.1094,-0.109,-0.1147,-0.1158,-0.1168,-0.116,0,0,0,0,0]},{"header":{"parameterUnit":"m.s-1","parameterCategory":2,"la1":30.2991,"la2":30.254,"lo1":-89.0895,"lo2":-89.0444,"dy":0.0017,"dx":0.0017,"nx":28,"ny":28,"refTime":"2025-03-24T09:00:00:Z","depth":"4","parameterNumber":3,"parameterNumberName":"V-component_of_CURRENTS"},"data":[0,0,0,0,0,0,0,0,0,0,0,0,0,0,0,0,0,0,0,0,0,0,0,0,0,0,0,0,0,0,0,0,0,0,0,0,0,0,0,0,0,0,0,0,0,0,0,0,0,0,0,0,0,0,0,0,0,0,-0.0149,-0.0148,0,-0.0099,-0.0098,-0.0097,-0.0063,-0.0063,-0.0063,-0.0063,-0.0003,-0.0002,-0.0,0,0,0,0,0,0,0,0,0,0,0,0,0,-0.019,-0.0189,-0.0149,-0.0148,-0.0148,-0.0099,-0.0098,-0.0097,-0.0063,-0.0063,-0.0063,-0.0063,-0.0004,-0.0002,-0.0,0,0,0,0,0,0,0,0,0,0,0,0,0,-0.0158,-0.0189,-0.0149,-0.0126,-0.0124,-0.0099,-0.0098,-0.0097,-0.0063,-0.0063,-0.0063,-0.0063,-0.0004,-0.0002,0.0,0.001,0,0,0.0007,0.0008,0,0,0,0,0,0,0,0,-0.016,-0.0156,-0.013,-0.0128,-0.0125,-0.0088,-0.0091,-0.0061,-0.0063,-0.0085,-0.0063,-0.0063,-0.0032,-0.0027,-0.0016,0.0013,0.0015,0.0007,0.0008,0.0009,0.001,0,0,0,0,0,0,0,-0.0162,-0.0158,-0.0128,-0.0129,-0.0126,-0.011,-0.0105,-0.0085,-0.0059,-0.0083,-0.0081,-0.0077,-0.003,-0.0019,-0.0015,0.0016,0.0007,0.0009,0.001,0.0011,0.0078,0.0078,0,0,0,0,0,0,-0.0172,-0.016,-0.0129,-0.0126,-0.0144,-0.0109,-0.0104,-0.0099,-0.0059,-0.0053,-0.0077,-0.0076,-0.0023,-0.0017,-0.0013,0.0014,0.0009,0.0011,0.0013,0.0078,0.0078,0.0079,0,0,0,0,0,0,-0.0173,-0.017,-0.0131,-0.0143,-0.0137,-0.0109,-0.0104,-0.0098,-0.0085,-0.0055,-0.0049,-0.0071,-0.0022,-0.0016,0.0006,0.0016,0.0012,0.0014,0.0077,0.0078,0.0078,0.0059,0,0,0,0,0,0,-0.0175,-0.0171,-0.0172,-0.0144,-0.0137,-0.0119,-0.0104,-0.0097,-0.0085,-0.0082,-0.0047,-0.0042,-0.0022,0.0002,0.0008,0.0019,0.0016,0.0077,0.0077,0.0078,0.0059,0.0059,0.0059,0,0,0,0,0,-0.0176,-0.0176,-0.0172,-0.0169,-0.0139,-0.0119,-0.0114,-0.0092,-0.0085,-0.008,-0.0056,-0.0043,0.0012,0.0004,0.0011,0.0023,0.0076,0.0077,0.0078,0.0059,0.0059,0.0059,0,0,0,0,0,0,-0.0193,-0.0172,-0.0167,-0.016,-0.0144,-0.0114,-0.0108,-0.0094,-0.0072,-0.007,-0.004,-0.0033,-0.0008,0.0008,-0.0001,0.0045,0.0048,0.005,0.0032,0.0032,0.0031,0.0022,0.0018,0,0,0,0,0,-0.0199,-0.0195,-0.0172,-0.0169,-0.0161,-0.0136,-0.0126,-0.0112,-0.0089,-0.0078,-0.0054,-0.0027,0.0001,0.0016,0.004,0.0061,0.0081,0.0075,0.0075,0.0075,0.0072,0.0116,0.012,0.0082,0.0082,0.0082,0,0,-0.0206,-0.0194,-0.0192,-0.0173,-0.0157,-0.0145,-0.0128,-0.0115,-0.0103,-0.0076,-0.0053,-0.0028,0.0006,0.0033,0.0046,0.0048,0.0094,0.0076,0.0075,0.0073,0.0117,0.0121,0.0124,0.0083,0.0083,0.0082,0,0,-0.0214,-0.0206,-0.0203,-0.019,-0.0171,-0.0155,-0.0153,-0.0125,-0.011,-0.009,-0.0062,-0.0033,0.0003,0.0035,0.0055,0.0069,0.0091,0.0077,0.0071,0.0113,0.0116,0.0119,0.0139,0.0144,0.0078,0.0078,0.0078,0,-0.0224,-0.0215,-0.02,-0.0191,-0.0182,-0.0161,-0.0154,-0.0135,-0.0104,-0.0092,-0.0086,-0.0021,0.0007,0.0051,0.0056,0.0069,0.0087,0.0067,0.0112,0.0116,0.0119,0.0139,0.0145,0.0077,0.0077,0.0077,0.0077,0,-0.0224,-0.0219,-0.0215,-0.0199,-0.0189,-0.018,-0.0156,-0.0143,-0.0127,-0.0105,-0.0066,-0.0026,0.0013,0.0031,0.0046,0.0089,0.009,0.0105,0.011,0.0122,0.0142,0.0148,0.0076,0.0076,0.0077,0.0077,0,0,-0.0237,-0.022,-0.0219,-0.022,-0.0193,-0.0189,-0.0169,-0.0145,-0.0137,-0.0099,-0.0078,-0.0021,-0.0002,0.0022,0.0054,0.0091,0.013,0.0104,0.0106,0.0117,0.0207,0.0196,0.0203,0.0152,0.0154,0.0155,0.0206,0,-0.0241,-0.0238,-0.0222,-0.0223,-0.022,-0.0198,-0.0185,-0.0163,-0.0139,-0.0115,-0.0062,-0.0033,-0.0003,0.0012,0.0057,0.011,0.0147,0.0113,0.0198,0.02,0.0186,0.021,0.0159,0.0211,0.0212,0.0213,0.0214,0,-0.0241,-0.0242,-0.0243,-0.0243,-0.024,-0.0237,-0.0222,-0.0207,-0.0165,-0.0146,-0.01,-0.0064,-0.0003,0.0017,0.0121,0.0096,0.0148,0.019,0.0194,0.0196,0.0203,0.02,0.0226,0.0225,0.0224,0.0224,0.0223,0,-0.0262,-0.0257,-0.0265,-0.0261,-0.0253,-0.0254,-0.0249,-0.0218,-0.0217,-0.0166,-0.0164,-0.0078,-0.0049,0.004,0.0127,0.0125,0.0235,0.0246,0.0287,0.0286,0.0287,0.0283,0.0323,0.0323,0.0323,0.0323,0.0322,0,-0.0268,-0.0278,-0.0281,-0.0286,-0.031,-0.0286,-0.0302,-0.0282,-0.0258,-0.026,-0.0187,-0.0168,-0.0043,0.0033,0.0121,0.0221,0.0236,0.0289,0.0306,0.0276,0.027,0.0291,0.0286,0.0325,0.0324,0.0324,0.0323,0,-0.0291,-0.0285,-0.0308,-0.0314,-0.0322,-0.0342,-0.036,-0.0367,-0.0336,-0.0336,-0.0325,-0.0237,-0.0129,-0.0006,0.0137,0.0199,0.0306,0.0338,0.0283,0.0295,0.0326,0.032,0.0386,0.0387,0.0387,0.0387,0.0387,0,-0.0302,-0.0312,-0.0347,-0.0373,-0.0381,-0.0409,-0.0429,-0.0412,-0.0415,-0.0378,-0.0376,-0.028,-0.0207,-0.0012,0.0121,0.0295,0.0319,0.0359,0.0359,0.0327,0.0336,0.033,0.0324,0.0387,0.0387,0.0387,0.0388,0,-0.0331,-0.0346,-0.037,-0.0423,-0.0456,-0.0494,-0.0513,-0.0524,-0.0496,-0.0482,-0.0411,-0.0304,-0.0183,-0.0016,0.0121,0.0245,0.0327,0.0362,0.0362,0.0362,0.0329,0.0337,0.033,0.0388,0.0388,0.0388,0.0388,0,-0.0363,-0.0395,-0.0426,-0.0472,-0.0518,-0.0548,-0.056,-0.0546,-0.0542,-0.0485,-0.0463,-0.032,-0.0232,-0.0043,0.0083,0.0208,0.0236,0.0261,0.0267,0.0268,0.0222,0.0161,0.0187,0,0,0,0,0,-0.0394,-0.0426,-0.0471,-0.0516,-0.0557,-0.0576,-0.0598,-0.0596,-0.0576,-0.053,-0.0491,-0.0368,-0.0171,-0.0081,0.0045,0.008,0.0249,0.0226,0.0278,0.0392,0.0391,0.0357,0,0,0,0,0,0,-0.0417,-0.0462,-0.0476,-0.0532,-0.0564,-0.0604,-0.0615,-0.0604,-0.0562,-0.0526,-0.041,-0.0356,-0.015,-0.0237,0.0044,0.008,0.0124,0.0324,0.0326,0.0392,0.0392,0.0391,0.0356,0,0,0,0,0]}]]